DW1498 Weather Reports


Display with metric or nautical units.
time (UTC)temp
F
wind
direction
speed
MPH
gust
MPH
rain 1hr
in
rain 24hr
in
rain mn
in
humidity
%
barometer
mb
20200120061603 5 254 4.0 7.0 0.00 0.00 0.00 81 1034.3
20200120060042 5 265 2.0 7.0 0.00 0.00 0.00 82 1034.2
20200120054511 5 261 3.0 7.0 0.00 0.00 0.00 81 1034.2
20200120053013 5 258 4.0 10.0 0.00 0.00 0.00 81 1034.2
20200120051658 5 256 3.0 10.0 0.00 0.00 0.00 81 1034.1
20200120050312 5 324 1.0 8.0 0.00 0.00 0.00 81 1033.9
20200120044618 5 264 1.0 9.0 0.00 0.00 0.00 81 1033.9
20200120043144 5 250 8.0 10.0 0.00 0.00 0.00 81 1033.8
20200120041644 5 247 7.0 11.0 0.00 0.00 0.00 81 1033.8
20200120040219 5 283 5.0 11.0 0.00 0.00 0.00 81 1033.9
20200120034629 5 256 7.0 12.0 0.00 0.00 0.00 81 1034.1
20200120033039 5 254 8.0 11.0 0.00 0.00 0.00 81 1033.8
20200120031708 6 252 9.0 11.0 0.00 0.00 0.00 81 1033.8
20200120030129 6 259 7.0 11.0 0.00 0.00 0.00 81 1033.6
20200120024600 6 259 8.0 11.0 0.00 0.00 0.00 81 1033.7
20200120023048 6 260 8.0 10.0 0.00 0.00 0.00 81 1033.9
20200120021511 7 254 5.0 9.0 0.00 0.00 0.00 81 1033.9
20200120020002 7 43 2.0 8.0 0.00 0.00 0.00 81 1033.7
20200120014722 6 252 4.0 13.0 0.00 0.00 0.00 81 1033.6
20200120013208 7 255 7.0 11.0 0.00 0.00 0.00 81 1033.5
20200120011717 7 252 7.0 11.0 0.00 0.00 0.00 81 1033.3
20200120010139 8 252 4.0 11.0 0.00 0.00 0.00 80 1033.2
20200120004643 7 258 5.0 10.0 0.00 0.00 0.00 80 1033.1
20200120003120 7 250 9.0 14.0 0.00 0.00 0.00 80 1033.1
20200120001723 7 254 6.0 15.0 0.00 0.00 0.00 80 1033.1
20200120000040 7 260 10.0 14.0 0.00 0.00 0.00 79 1033.1
20200119234548 7 255 11.0 14.0 0.00 0.00 0.00 79 1032.8
20200119233049 8 265 8.0 13.0 0.00 0.00 0.00 80 1032.7
20200119231603 8 258 9.0 12.0 0.00 0.00 0.00 79 1032.5
20200119230011 8 251 8.0 11.0 0.00 0.00 0.00 79 1032.4
20200119224506 8 262 8.0 11.0 0.00 0.00 0.00 79 1032.3
20200119223133 9 246 8.0 11.0 0.00 0.00 0.00 79 1032.2
20200119221903 9 250 8.0 11.0 0.00 0.00 0.00 79 1032.0
20200119220110 9 254 9.0 12.0 0.00 0.00 0.00 79 1031.9
20200119214625 9 254 9.0 11.0 0.00 0.00 0.00 79 1031.7
20200119213143 9 262 8.0 12.0 0.00 0.00 0.00 78 1031.8
20200119211620 9 255 9.0 11.0 0.00 0.00 0.00 78 1031.7
20200119210123 10 48 3.0 8.0 0.00 0.00 0.00 77 1031.5
20200119204641 9 257 2.0 6.0 0.00 0.00 0.00 77 1031.2
20200119203036 10 269 1.0 5.0 0.00 0.00 0.00 77 1031.3
20200119201533 9 261 2.0 5.0 0.00 0.00 0.00 77 1031.2
20200119200112 9 258 3.0 11.0 0.00 0.00 0.00 78 1031.1
20200119194534 9 30 3.0 8.0 0.00 0.00 0.00 77 1031.1
20200119193011 9 277 3.0 12.0 0.00 0.00 0.00 77 1031.1
20200119191501 9 247 5.0 9.0 0.00 0.00 0.00 78 1031.1
20200119190407 9 264 2.0 6.0 0.00 0.00 0.00 78 1031.1
20200119184508 9 261 3.0 11.0 0.00 0.00 0.00 78 1030.9
20200119183028 8 265 9.0 12.0 0.00 0.00 0.00 78 1030.9
20200119181803 8 40 4.0 11.0 0.00 0.00 0.00 78 1030.8
20200119180222 7 300 3.0 6.0 0.00 0.00 0.00 78 1030.8
20200119174605 7 56 4.0 15.0 0.00 0.00 0.00 79 1030.7
20200119173138 7 342 4.0 9.0 0.00 0.00 0.00 78 1031.0
20200119171625 6 317 3.0 11.0 0.00 0.00 0.00 79 1030.7
20200119170138 6 303 2.0 13.0 0.00 0.00 0.00 79 1030.8
20200119164632 6 355 4.0 9.0 0.00 0.00 0.00 79 1030.6
20200119163149 5 348 4.0 9.0 0.00 0.00 0.00 79 1030.4
20200119161555 5 12 2.0 7.0 0.00 0.00 0.00 79 1029.9
20200119160138 5 5 3.0 9.0 0.00 0.00 0.00 79 1029.6
20200119154527 5 306 3.0 8.0 0.00 0.00 0.00 79 1029.6
20200119153021 5 254 2.0 9.0 0.00 0.00 0.00 79 1029.5
20200119151506 5 275 2.0 10.0 0.00 0.00 0.00 79 1029.3
20200119150003 4 261 6.0 11.0 0.00 0.00 0.00 79 1029.1
20200119144646 4 261 5.0 11.0 0.00 0.00 0.00 79 1028.8
20200119143154 4 260 3.0 9.0 0.00 0.00 0.00 78 1028.5
20200119141617 4 360 2.0 8.0 0.00 0.00 0.00 78 1028.2
20200119140146 3 292 3.0 6.0 0.00 0.00 0.00 78 1027.9
20200119134702 3 12 3.0 6.0 0.00 0.00 0.00 78 1027.8
20200119133208 3 321 4.0 8.0 0.00 0.00 0.00 78 1027.4
20200119131623 3 351 2.0 10.0 0.00 0.00 0.00 78 1027.1
20200119130051 2 328 2.0 8.0 0.00 0.00 0.00 78 1026.8
20200119124539 2 56 3.0 8.0 0.00 0.00 0.00 78 1026.6
20200119123025 2 342 3.0 7.0 0.00 0.00 0.00 78 1026.4
20200119121612 2 351 3.0 11.0 0.00 0.00 0.00 77 1026.0
20200119120010 2 332 4.0 11.0 0.00 0.00 0.00 77 1025.6
20200119114505 2 329 4.0 10.0 0.00 0.00 0.00 77 1025.5
20200119111750 1 27 7.0 13.0 0.00 0.00 0.00 77 1025.0
20200119110148 1 313 4.0 10.0 0.00 0.00 0.00 77 1024.9
20200119104747 1 283 4.0 11.0 0.00 0.00 0.00 77 1024.4
20200119103120 0 319 3.0 9.0 0.00 0.00 0.00 76 1024.0
20200119101626 0 351 5.0 11.0 0.00 0.00 0.00 76 1023.9
20200119100130 0 59 4.0 9.0 0.00 0.00 0.00 76 1023.7
20200119094548 0 261 4.0 11.0 0.00 0.00 0.00 76 1023.3
20200119093056 0 273 6.0 13.0 0.00 0.00 0.00 76 1023.0
20200119091546 0 22 4.0 12.0 0.00 0.00 0.00 76 1022.7
20200119090021 0 350 5.0 13.0 0.00 0.00 0.00 76 1022.5
20200119084549 0 227 5.0 13.0 0.00 0.00 0.00 76 1022.2
20200119083017 0 360 5.0 11.0 0.00 0.00 0.00 76 1022.2
20200119081740 0 30 5.0 12.0 0.00 0.00 0.00 76 1021.7
20200119080209 0 281 5.0 14.0 0.00 0.00 0.00 76 1021.3
20200119074644 0 264 4.0 16.0 0.00 0.00 0.00 76 1021.4
20200119073136 0 278 11.0 19.0 0.00 0.00 0.00 76 1020.8
20200119071703 -1 252 8.0 17.0 0.00 0.00 0.00 76 1020.7
20200119070116 -1 250 3.0 12.0 0.00 0.00 0.00 76 1020.8
20200119064554 -1 273 5.0 14.0 0.00 0.00 0.00 76 1020.5
20200119063152 -1 17 3.0 12.0 0.00 0.00 0.00 76 1020.5